Regional Weather Roundup
Issued by NWS

Home | Current Version | Previous Version | Text Only | Print | Product List | Glossary Off
Versions: 1 2 3 4 5 6 7 8 9 10 11 12 13 14 15 16 17 18 19 20 21 22 23 24 25 26 27 28 29 30 31 32 33 34 35 36 37 38 39 40 41 42 43 44 45 46 47 48 49 50

159
ASUS43 KOAX 260810
RWRNE

WEATHER ROUNDUP FOR NEBRASKA
NATIONAL WEATHER SERVICE OMAHA NE
300 AM CDT WED JUL 26 2017

NOTES: SATELLITE DATA IS BEING USED TO AUGMENT CLOUD COVER ABOVE
       12000 FEET.
       "FAIR" INDICATES FEW OR NO CLOUDS BELOW 12,000 FEET WITH NO
       SIGNIFICANT WEATHER AND/OR OBSTRUCTIONS TO VISIBILITY.


NEZ001>004-019>022-054>056-260900-
NEBRASKA PANHANDLE

CITY           SKY/WX    TMP DP  RH WIND       PRES   REMARKS
SCOTTSBLUFF    CLOUDY    74  61  63 N6        30.10S
ALLIANCE       CLOUDY    69  66  90 N16G22    30.06S
CHADRON        CLOUDY    72  56  57 N10       30.08S
GORDON         CLOUDY    69  67  92 NE9       30.05F
KIMBALL        CLOUDY    70  63  77 NE15G22   30.14S
SIDNEY         CLOUDY    70  62  76 N16G24    30.08R
$$

NEZ057>060-069>072-079>082-260900-
SOUTHWEST NEBRASKA

CITY           SKY/WX    TMP DP  RH WIND       PRES   REMARKS
NORTH PLATTE   CLOUDY    71  67  87 NE21G29   29.96R
IMPERIAL       MOCLDY    75  62  64 MISG      29.94R
LEXINGTON      RAIN      75  69  82 SE10G18   29.93S
MCCOOK         CLOUDY    76  70  82 E8        29.89F
OGALLALA       CLOUDY    73  65  78 NE18G25   29.97R
$$

NEZ005>010-023>029-035>040-094-260900-
NORTH CENTRAL NEBRASKA

CITY           SKY/WX    TMP DP  RH WIND       PRES   REMARKS
VALENTINE      CLOUDY    70  66  87 N9        29.95F
AINSWORTH      LGT RAIN  67  67 100 SE13      29.95F
BROKEN BOW     CLOUDY    69  66  90 NE10G21   29.99R
O`NEILL        RAIN      69  69 100 S7        30.02F
ORD            LGT RAIN  68  65  90 NE8       29.98F
THEDFORD       CLOUDY    68  67  95 CALM      30.00R
$$

NEZ041-046>049-061>064-073>077-083>087-260900-
SOUTH CENTRAL NEBRASKA

CITY           SKY/WX    TMP DP  RH WIND       PRES   REMARKS
GRAND ISLAND   TSTM      77  72  84 W17G28    29.98R
AURORA         CLOUDY    81  68  65 S13G22    29.89F
HASTINGS       LGT RAIN  79  68  69 SW12G20   29.98R
HEBRON         CLOUDY    82  70  66 S16       29.92F
HOLDREGE       TSTM      72  67  86 SE17      29.95F
KEARNEY        TSTM      76  71  85 S15       29.99R
YORK           CLOUDY    81  70  69 S14G21    29.89F
$$

NEZ011>018-030>034-042>045-260900-
NORTHEAST NEBRASKA

CITY           SKY/WX    TMP DP  RH WIND       PRES   REMARKS
NORFOLK        RAIN      71  69  93 N13G24    30.00R FOG
ALBION         CLOUDY    72  70  95 NE15      29.98S
BLAIR          CLOUDY    82  72  71 S14       29.93F
COLUMBUS       CLOUDY    83  70  64 W15G25    29.95R THUNDER
FREMONT        CLOUDY    82  69  66 SE13G20   29.92F
TEKAMAH        CLOUDY    79  73  82 SE8       29.91F
WAYNE          RAIN      72  72  99 N9        30.00S
$$

NEZ050>053-065>068-078-088>093-260900-
SOUTHEAST NEBRASKA

CITY           SKY/WX    TMP DP  RH WIND       PRES   REMARKS
LINCOLN        CLOUDY    81  70  69 S13       29.92F
OMAHA EPPLEY   CLOUDY    83  73  72 S14       29.93F
BEATRICE       CLOUDY    82  71  68 S12       29.95R
FALLS CITY     CLOUDY    78  71  79 S9        29.95F
NEBRASKA CITY  CLOUDY    79  74  86 S12       29.96F
PLATTSMOUTH    CLOUDY    79  73  83 SE12G17   29.94F
$$

NEZ044-045-051>053-067-260900-
OMAHA AREA

CITY           SKY/WX    TMP DP  RH WIND       PRES   REMARKS
OMAHA EPPLEY   CLOUDY    83  73  72 S14       29.93F
BLAIR          CLOUDY    82  72  71 S14       29.93F
FREMONT        CLOUDY    82  69  66 SE13G20   29.92F
MILLARD        CLOUDY    83  74  76 SE8       29.93F
OFFUTT AFB     CLEAR     80  73  80 SE13      29.93F
PLATTSMOUTH    CLOUDY    79  73  83 SE12G17   29.94F
WAHOO          FAIR      80  69  70 SE12      29.92F
$$




USA.gov is the U.S. government's official web portal to all federal, state and local government web resources and services.